RH
88 98 95 90 84 76 69 68 67 62 61 63 55 40 24 15 13 43 31 21 19 16 18 30 25 22 22 17 18 14 16 17 14 15 14 12 15 13 17 18 15 16 15 15 13
86 88 99 99 97 90 83 77 72 66 64 63 56 44 25 15 50 32 26 17 20 14 24 18 18 18 15 17 18 18 16 15 11 12 13 12 16 13 16 13 14 15 12 12 12
90 92 97 99 97 98 94 90 82 72 68 65 52 41 28 17 30 18 20 25 20 19 19 19 18 18 16 18 16 16 20 15 16 16 13 13 14 12 14 16 14 16 14 12 13
61 94 98 100 96 98 100 95 89 78 74 67 51 40 26 45 58 21 20 19 25 40 24 20 18 20 18 20 14 17 15 14 13 12 16 15 13 13 12 13 11 11 12 12 12
52 76 79 95 85 92 100 100 95 85 80 66 50 45 47 32 30 28 21 21 31 40 21 19 18 16 16 12 13 20 13 12 12 12 13 12 14 15 14 12 11 11 13 12 12
55 75 89 82 96 86 99 100 98 89 79 66 54 53 56 63 32 16 30 47 35 31 20 16 15 13 12 12 13 13 16 15 17 17 16 19 15 15 15 12 13 13 13 12 12
89 99 98 94 86 100 100 100 98 90 79 69 67 74 62 53 34 24 27 26 31 26 20 17 14 15 13 17 14 17 20 16 16 16 15 16 18 17 15 13 14 13 12 12 13
96 94 98 95 91 100 100 100 97 92 82 78 54 73 70 51 43 40 31 27 33 33 24 18 19 19 21 16 19 21 20 23 17 16 16 19 20 16 12 14 13 12 13 14 13
99 93 93 97 97 100 99 99 97 92 84 79 78 77 69 47 46 40 40 30 23 32 27 28 24 24 25 27 23 22 24 22 19 18 18 20 19 14 13 14 15 14 14 14 18
99 88 89 93 99 100 100 100 98 88 84 84 68 89 61 46 33 33 43 34 23 19 31 32 30 29 27 24 32 25 24 21 22 17 19 19 18 15 11 13 17 15 15 19 27
83 83 89 95 100 100 99 96 90 92 83 69 59 52 41 33 35 32 42 37 21 23 36 31 37 32 26 23 22 22 21 22 19 17 22 19 15 13 14 16 17 15 22 29 34
81 86 88 100 100 94 99 89 66 65 73 57 56 52 50 46 42 30 37 30 24 26 29 36 45 29 22 21 24 25 25 23 18 16 16 18 19 17 16 16 15 17 31 37 38
82 89 92 100 99 100 97 82 70 64 82 57 48 54 48 48 54 40 31 29 31 32 25 50 39 25 23 28 31 27 24 22 19 20 22 24 23 18 17 18 27 31 37 41 41
84 87 100 100 99 98 91 78 65 64 99 49 54 48 48 48 58 40 32 33 46 59 48 58 40 40 32 31 26 28 19 19 23 29 27 22 21 18 16 24 31 36 41 42 44
95 100 98 92 95 92 84 77 63 61 90 33 38 31 36 52 36 40 38 34 47 46 53 56 44 52 57 31 23 26 22 29 26 30 29 25 28 15 17 24 31 38 45 47 47
100 100 100 92 92 94 84 77 81 95 92 42 28 39 45 46 39 33 47 35 42 87 89 66 52 60 56 50 42 27 32 30 30 30 39 25 24 16 21 21 29 42 50 52 50
100 96 85 87 98 87 81 91 97 94 40 41 39 44 40 37 41 39 64 61 77 94 86 61 55 31 30 36 35 39 36 49 50 46 36 19 22 16 21 31 36 51 54 54 51
89 85 98 78 81 84 92 98 95 69 41 23 25 30 47 33 36 36 61 72 54 40 41 51 55 29 25 28 31 40 32 45 52 35 26 29 29 37 50 52 56 56 55 54 52
89 93 100 100 100 99 89 93 83 56 42 38 34 50 42 32 27 30 38 44 33 31 40 40 42 31 27 27 29 30 36 23 33 32 34 24 28 54 64 65 61 57 55 55 52
73 76 91 96 99 97 98 76 57 35 32 34 50 80 56 31 33 34 34 29 32 32 31 37 47 34 26 26 24 34 27 48 42 46 40 22 22 28 63 60 48 50 55 56 52
53 59 84 94 96 99 85 57 48 37 32 45 51 67 66 40 33 61 38 38 38 40 35 37 34 37 28 32 28 28 38 50 46 44 44 38 34 57 56 50 50 48 55 59 57
63 81 96 98 100 100 69 49 45 41 36 44 56 57 68 49 65 60 51 44 51 47 45 36 32 31 33 36 28 25 36 35 42 37 43 57 41 50 53 53 51 48 56 59 59
80 85 99 97 93 74 55 47 44 44 42 53 56 61 42 54 46 67 72 67 56 51 44 32 33 44 36 37 35 36 41 40 43 41 42 44 35 57 60 45 46 58 56 58 61
61 90 99 99 93 68 61 54 52 39 42 45 51 61 53 49 38 47 50 46 48 47 53 33 28 25 25 37 37 47 42 35 44 57 36 31 22 38 28 18 25 48 59 58 60
61 72 49 88 82 68 55 47 51 49 45 40 52 70 88 54 45 47 41 47 44 47 43 37 32 32 35 36 34 35 35 31 31 26 35 18 18 18 29 42 43 60 60 65 74
97 55 50 44 51 63 63 49 45 46 44 45 56 43 50 64 46 46 40 37 37 40 41 43 53 42 35 33 34 36 27 26 27 25 23 23 29 38 46 57 72 72 70 72 74
64 62 45 53 48 63 53 44 42 39 44 49 42 41 41 42 37 37 35 35 37 37 42 39 54 43 25 33 32 30 32 26 24 25 41 54 52 52 59 85 75 76 77 79 78
Wind_Speed
25 26 24 22 22 20 19 16 14 12 12 13 15 17 19 21 24 14 14 8 4 7 9 11 9 10 10 8 8 5 8 13 20 12 11 3 10 4 3 8 7 7 9 12 17
27 28 27 24 23 22 21 17 15 13 12 12 14 16 18 18 18 18 15 8 6 10 13 15 12 13 8 10 7 12 12 15 12 11 11 10 11 11 9 12 12 14 13 10 11
31 31 30 28 26 25 22 18 15 13 12 12 13 15 16 13 9 1 3 3 8 14 11 9 9 11 11 8 12 10 18 16 9 13 11 14 15 13 15 16 16 14 13 11 11
29 32 33 32 29 28 25 21 16 13 11 10 11 13 13 3 9 2 1 5 13 9 11 11 10 10 10 14 15 12 16 16 14 12 15 16 15 17 15 18 15 14 14 12 11
28 29 33 34 31 30 27 21 17 12 10 9 8 12 5 7 10 8 5 8 12 11 13 11 12 12 13 9 12 17 16 14 15 14 16 16 19 19 18 16 14 12 9 12 8
30 31 31 33 33 30 25 23 18 14 10 7 4 9 6 14 9 8 8 10 13 15 15 16 9 12 12 13 16 2 12 12 10 14 16 16 17 15 12 13 10 9 9 6 7
30 30 31 34 31 30 24 26 20 17 11 8 7 5 12 18 10 9 9 15 16 20 18 19 20 14 7 13 18 13 16 16 17 17 15 12 19 20 17 13 10 9 8 5 4
30 30 30 31 31 30 25 27 22 19 11 8 6 3 10 11 14 23 22 18 14 17 19 12 16 17 13 8 7 11 14 14 5 14 13 11 13 4 4 9 11 8 6 5 5
31 28 26 28 30 33 28 26 22 15 10 5 3 5 12 5 11 18 22 17 21 12 15 8 13 16 13 16 15 16 15 16 10 12 6 14 9 7 7 7 11 11 10 5 4
29 24 22 26 31 33 30 25 13 7 4 4 6 4 9 11 6 4 6 18 13 14 11 13 8 12 16 16 19 19 19 16 14 8 11 12 13 10 17 13 11 11 7 5 4
20 22 21 26 32 39 31 13 5 3 9 12 9 9 5 5 6 11 7 14 15 14 20 18 12 24 24 22 21 10 15 14 8 8 6 15 17 16 15 13 13 10 7 3 2
20 21 20 30 41 31 28 6 6 2 7 19 23 24 26 6 7 12 16 11 13 19 19 14 25 25 18 18 20 22 19 19 15 16 11 15 16 13 14 15 8 7 8 4 2
18 17 20 35 36 32 24 10 9 7 1 13 19 18 21 21 21 22 21 13 15 16 18 20 19 10 21 18 19 21 21 16 15 5 12 13 18 14 6 7 8 7 5 3 4
13 16 31 43 24 21 9 17 14 9 4 8 7 7 10 9 11 28 25 15 10 21 17 10 19 19 14 23 22 22 16 15 12 9 10 7 4 12 8 11 10 8 5 3 5
12 28 39 34 22 11 12 21 14 3 7 2 6 3 8 14 8 11 32 17 20 13 14 16 21 24 19 16 17 19 7 14 15 13 13 15 7 6 13 10 12 9 5 4 6
36 45 34 22 13 15 29 20 3 5 9 6 6 9 11 17 9 3 17 11 3 1 6 14 1 5 15 17 16 9 6 10 10 11 13 16 12 10 13 11 11 8 5 6 9
29 26 21 16 11 28 35 8 2 6 3 7 5 8 13 8 8 9 17 13 9 6 10 13 19 18 13 14 14 21 12 6 8 8 12 2 9 4 10 6 5 6 5 8 10
18 15 10 22 33 39 13 2 9 1 7 1 3 6 8 8 9 14 18 16 18 14 6 9 7 19 9 15 10 22 19 9 10 11 10 6 8 6 10 12 10 7 6 8 10
16 13 12 24 29 22 5 4 2 6 2 4 7 8 11 9 7 15 17 18 15 9 8 13 8 4 4 5 6 15 19 18 9 5 6 8 7 8 9 8 6 5 6 8 10
13 11 6 18 20 12 3 4 7 4 2 4 9 2 6 10 8 11 12 3 7 1 7 1 5 4 5 5 4 6 8 7 8 12 15 12 10 3 8 5 5 6 6 7 10
9 5 9 14 9 1 5 5 5 4 2 3 4 4 2 4 6 3 7 5 1 3 5 7 6 5 2 2 2 4 5 4 4 5 7 11 2 4 8 5 5 7 8 10 11
5 4 12 17 3 2 8 5 1 4 5 3 2 3 4 4 5 6 5 3 3 5 6 5 2 4 2 3 2 3 2 3 5 8 4 6 6 4 5 6 7 7 8 8 10
4 3 6 5 6 8 6 7 8 6 8 6 4 3 1 6 2 10 4 3 1 5 5 2 2 3 2 1 1 2 1 2 2 1 9 9 3 5 3 2 2 6 8 7 8
4 5 3 3 1 5 10 11 10 9 6 4 4 3 3 6 2 10 10 4 4 4 6 1 3 5 5 3 4 4 7 4 2 3 4 9 13 4 8 15 15 1 4 5 8
4 4 7 8 10 10 9 10 14 8 6 7 6 5 4 5 4 5 6 10 5 0 3 1 3 2 4 4 2 2 6 7 10 10 6 9 11 14 16 18 9 2 4 5 8
4 4 5 3 12 14 9 9 13 9 8 9 4 6 10 4 3 8 10 7 5 3 3 2 3 1 2 3 4 8 9 10 11 12 14 15 16 11 17 5 2 2 5 5 8
3 2 3 9 13 11 11 9 14 10 2 4 6 6 9 8 9 9 8 6 6 6 4 3 4 3 2 2 1 7 5 10 9 7 7 11 12 17 15 3 4 5 8 7 9
Wind_Direction
293 291 287 287 288 287 280 282 281 295 303 312 324 329 334 329 322 312 270 255 205 195 177 155 164 176 191 202 220 244 246 248 247 252 259 214 252 157 330 259 258 258 275 299 305
285 285 287 286 286 284 280 270 274 286 295 308 322 326 335 329 315 280 264 238 223 176 175 183 177 176 197 216 204 218 239 259 276 268 258 261 244 273 269 263 261 275 272 282 290
278 278 279 278 283 285 270 263 263 270 284 301 318 323 334 340 294 327 182 236 176 168 184 192 186 196 221 217 207 215 243 268 245 258 263 265 266 266 263 270 266 279 286 293 294
272 272 274 276 277 280 268 258 255 259 274 295 315 319 332 304 293 50 235 183 165 172 179 180 190 201 232 217 222 247 235 258 251 256 253 257 268 267 269 268 277 274 280 288 283
274 267 267 267 270 272 265 251 245 247 265 289 313 318 333 238 246 297 261 189 181 186 204 200 210 225 234 233 233 240 253 251 249 247 250 267 262 265 266 269 273 269 270 277 286
294 267 261 260 262 263 254 239 237 242 249 270 307 312 272 255 256 251 227 214 220 213 221 225 232 237 276 241 233 282 249 251 248 239 244 252 254 244 248 259 255 246 255 256 279
285 277 261 254 251 250 247 233 228 235 233 260 298 299 257 256 255 227 222 226 238 237 244 240 243 228 238 246 232 256 253 244 243 245 239 248 256 246 252 262 254 220 245 262 291
283 277 266 249 245 244 232 222 223 231 239 261 281 252 260 253 254 244 238 236 240 243 243 243 221 237 243 253 225 233 240 249 193 224 226 216 260 194 221 220 227 259 251 266 304
281 270 262 241 236 229 217 218 222 233 259 249 231 196 266 230 232 252 233 231 225 227 229 247 205 214 211 237 242 221 251 221 230 206 190 211 254 257 186 211 255 262 266 296 297
274 260 259 235 225 217 204 202 196 228 213 203 236 226 240 239 202 217 210 212 216 204 213 223 218 219 220 218 231 237 230 249 235 179 226 223 241 247 272 262 249 260 277 256 277
254 260 254 225 209 184 180 126 130 222 216 208 205 241 275 277 251 223 191 173 202 194 208 203 212 223 226 225 239 285 267 248 205 219 261 253 257 254 249 251 241 246 196 193 335
261 255 227 212 190 204 184 193 187 26 263 228 252 251 259 275 269 223 168 176 190 213 218 210 231 240 232 240 238 247 249 254 265 259 245 259 254 242 248 248 245 181 164 135 330
254 233 206 191 189 172 184 179 143 133 297 271 232 247 242 223 243 234 199 194 193 206 213 217 248 236 250 238 231 237 244 252 254 212 234 263 261 237 201 166 156 140 122 129 31
224 202 183 159 150 157 150 145 136 133 240 258 202 245 204 202 259 227 212 199 197 213 197 233 247 290 272 239 227 237 221 244 250 249 252 193 262 174 176 172 182 161 161 77 28
203 193 176 179 144 170 164 152 138 242 276 165 165 113 165 186 334 196 205 210 215 199 180 206 200 195 234 234 223 247 229 233 241 250 262 238 251 173 177 180 176 163 121 70 21
149 144 145 128 118 144 151 140 121 172 230 193 166 177 177 216 241 26 186 217 166 192 258 238 272 181 216 235 252 260 238 235 239 240 244 245 227 172 188 188 146 136 99 31 9
120 130 136 124 131 142 139 122 144 231 154 182 214 195 213 208 224 209 180 177 173 184 207 213 220 218 208 213 204 215 216 212 226 217 242 182 226 208 134 119 104 111 57 21 6
114 121 105 131 140 145 130 99 221 281 219 14 290 246 227 209 227 206 185 193 220 236 222 209 211 212 187 231 203 197 203 218 215 227 231 147 230 114 94 89 91 74 34 10 2
140 110 115 143 148 153 156 195 213 199 254 274 285 285 216 211 237 202 199 207 198 218 227 195 203 167 187 209 229 193 217 241 279 271 273 203 149 112 113 111 103 63 19 9 5
123 116 128 158 155 171 218 201 186 201 291 259 226 261 257 205 202 188 177 143 176 238 290 60 139 190 143 193 112 255 169 201 220 245 240 238 241 186 140 115 71 44 22 15 7
137 128 153 174 141 173 218 192 179 224 284 297 203 166 237 291 244 145 182 126 87 97 67 32 269 151 217 335 61 168 191 233 281 276 270 270 252 89 114 81 41 30 20 11 2
169 139 158 164 167 211 211 197 183 203 226 205 116 168 145 276 190 137 185 49 9 47 131 206 272 145 113 23 289 283 279 271 252 221 255 296 285 141 116 63 10 14 14 4 1
127 120 158 181 194 201 211 204 199 223 206 205 149 205 194 203 157 129 150 315 192 179 214 198 140 186 217 200 35 241 127 131 139 243 254 261 267 149 124 246 104 338 350 356 359
178 147 153 208 222 223 195 201 199 214 196 202 156 123 251 166 227 151 148 149 157 142 55 235 177 268 252 57 102 173 172 165 167 224 286 244 291 222 289 307 318 35 337 355 16
197 187 170 191 200 207 200 202 195 176 192 196 155 174 203 176 124 140 134 130 103 51 66 31 181 183 86 109 136 192 213 221 238 248 253 288 300 303 316 317 341 36 26 26 30
166 175 179 202 182 195 182 213 198 173 178 184 208 201 176 215 224 176 155 171 166 120 102 3 129 155 236 243 257 265 255 251 250 260 265 273 277 360 333 6 53 46 51 23 28
199 215 227 144 186 187 198 220 199 167 139 193 236 159 139 106 90 91 90 94 120 142 125 135 139 164 195 140 255 254 278 263 243 250 288 284 337 329 318 182 43 52 50 35 27